Regional Weather Roundup
Issued by NWS

Home | Current Version | Previous Version | Text Only | Print | Product List | Glossary On
Versions: 1 2 3 4 5 6 7 8 9 10 11 12 13 14 15 16 17 18 19 20 21 22 23 24 25 26 27 28 29 30 31 32 33 34 35 36 37 38 39 40 41 42 43 44 45 46 47 48
000
ASUS43 KMPX 132110
RWRMN
WEATHER ROUNDUP FOR MINNESOTA
NATIONAL WEATHER SERVICE TWIN CITIES/CHANHASSEN MN
400 PM CDT THU AUG 13 2020


NOTE: "FAIR" INDICATES FEW OR NO CLOUDS BELOW 12,000 FEET WITH NO
SIGNIFICANT WEATHER AND/OR OBSTRUCTIONS TO VISIBILITY. N/A MEANS
CURRENT SKY AND/OR WEATHER CONDITIONS ARE NOT AVAILABLE.

MNZ060>063-068>070-132200-
   Twin Cities Metro

CITY           SKY/WX    TMP DP  RH WIND       PRES   REMARKS
TWIN CITIES    PTSUNNY   87  71  58 S13       29.97S HX  93
ST PAUL        PTSUNNY   88  73  61 S15G24    29.97S HX  95
CRYSTAL        MOSUNNY   89  70  53 S12G23    29.95S HX  94
BLAINE         MOSUNNY   90  72  55 S12G17    29.96F HX  96
LAKEVILLE      MOSUNNY   88  66  48 S6        29.98S HX  90
EDEN PRAIRIE   MOSUNNY   85  72  65 S12G20    29.96S HX  91
SOUTH ST PAUL  MOSUNNY   87  70  56 S13       29.97S HX  91
LAKE ELMO      PTSUNNY   84  72  65 S15G22    29.99S
$$
MNZ001>005-007-008-013>017-022>024-027-028-132200-
   Northwest Minnesota

CITY           SKY/WX    TMP DP  RH WIND       PRES   REMARKS
BEMIDJI        CLOUDY    76  70  82 SE14      29.90R
HALLOCK        SUNNY     77  72  83 E14       29.82F
ROSEAU         PTSUNNY   77 N/A N/A SE10      29.87F
WARROAD        PTSUNNY   75  72  88 SE7       29.88F
THIEF RVR FALL CLOUDY    80  71  74 E7        29.86S
CROOKSTON      MOSUNNY   84  73  70 E9        29.81F HX  91
FOSSTON        MOSUNNY   81  72  74 SE7       29.86S
DETROIT LAKES    N/A     86  72  62 S15G24    29.86R HX  92
MOORHEAD       MOSUNNY   90  70  51 S15G23    29.80R HX  95
PARK RAPIDS    PTSUNNY   84  71  65 S17       29.88S
MAHNOMEN       CLOUDY    85  73  67 S16G22    29.84S HX  92
$$
MNZ006-009>011-018-025>026-132200-
   North Central Minnesota

CITY           SKY/WX    TMP DP  RH WIND       PRES   REMARKS
BAUDETTE       CLOUDY    77  68  73 S13       29.91R
FLAG ISLAND      N/A     73  66  78 CALM      29.89S
INTL FALLS     PTSUNNY   76  66  71 S13G21    29.92S
WASKISH          N/A     73  66  78 S7        29.93R
BIG FORK       CLOUDY    72  66  83 S8        30.00F
LONGVILLE      CLOUDY    77  72  83 SE7       29.92F
GRAND RAPIDS   CLOUDY    73  69  87 SE7       29.97F
CRANE LAKE     CLOUDY    79  66  65 SE5       29.99S
ORR            CLOUDY    73  64  73 SE9       29.96S
COOK           CLOUDY    73  66  78 SE6       29.98S
WALKER         CLOUDY    76  72  86 SE7       29.90S
$$
MNZ012-019>021-037-132200-
   Northeast Minnesota

CITY           SKY/WX    TMP DP  RH WIND       PRES   REMARKS
DULUTH         MOSUNNY   74  65  73 E14       30.01F
ELY            CLOUDY    75  63  64 SE15      30.00F
HIBBING        CLOUDY    71  65  81 SE13      29.98F
EVELETH        CLOUDY    72  66  83 SE10      30.01S
DULUTH HARBOR  PTSUNNY   68  63  83 NE15      30.00F
TWO HARBORS    SUNNY     72  57  60 E9        30.01F
SILVER BAY       N/A     70  57  64 NE9       30.03F
GRAND MARAIS     N/A     68  56  65 NE9       30.05F
G MARAIS ARPRT PTSUNNY   70  55  60 E9        30.10S
$$
MNZ029>031-032-039>041-046>048-054>057-064-132200-
   West Central Minnesota

CITY           SKY/WX    TMP DP  RH WIND       PRES   REMARKS
FERGUS FALLS   MOSUNNY   84  73  70 S18G25    29.83S HX  91
WHEATON        SUNNY     88  72  58 S16G23    29.84R HX  94
MORRIS         MOSUNNY   84  72  65 S14G23    29.88R
ELBOW LAKE     FAIR      86  75  70 S22G28    29.86S HX  95
WADENA         MOSUNNY   86  72  62 S16G24    29.87S HX  92
GLENWOOD       SUNNY     86  73  66 S23       29.90F HX  93
APPLETON       MOSUNNY   90  72  55 S12G26    29.85F HX  96
ORTONVILLE     PTSUNNY   88  75  66 S10G17    29.85S HX  97
MADISON        SUNNY     90  73  58 S20       29.86F HX  98
WILLMAR        FAIR      88  73  62 S7G24     29.93F HX  96
$$
MNZ033>034-036-042>043-049>051-058-059-132200-
   Central Minnesota

CITY           SKY/WX    TMP DP  RH WIND       PRES   REMARKS
ST CLOUD       MOSUNNY   84  73  69 S15G24    29.94F HX  90
SAUK CENTRE    MOCLDY    85  74  69 S18G26    29.91F HX  91
PAYNESVILLE    MOSUNNY   86  76  71 S14G23    29.93F HX  96
AITKIN         PTSUNNY   79  70  73 SE12G17   29.94S
PINE RIVER     PTSUNNY   81  72  74 S10       29.94F
BRAINERD       PTSUNNY   83  72  69 SE12      29.92F
STAPLES        CLOUDY    82  72  69 S15G21    29.89S
LONG PRAIRIE   PTSUNNY   82  72  69 S15G25    29.92S
LITTLE FALLS   MOSUNNY   82  72  69 S14G25    29.92F
CAMP RIPLEY    MOCLDY    85  74  69 S15       29.92F HX  92
LITCHFIELD     SUNNY     88  75  66 S7        29.93F HX  97
BUFFALO        MOSUNNY   85  71  62 MISG      29.97F
MAPLE LAKE       N/A     86  77  72 S6        29.96F HX  97
HUTCHINSON     MOSUNNY   87  76  71 SE9G16    29.96S HX  97
$$
MNZ037-044-045-052-053-132200-
   East Central Minnesota

CITY           SKY/WX    TMP DP  RH WIND       PRES   REMARKS
PRINCETON      MOSUNNY   88  73  62 SE10      29.95F HX  96
MORA           MOSUNNY   82  72  69 S12       29.98F
CAMBRIDGE      SUNNY     88  72  58 S7        29.96F HX  94
RUSH CITY      MOSUNNY   83  72  69 SE6       29.97F
MOOSE LAKE     PTSUNNY   82  70  65 S7        29.96F
HINCKLEY       MOCLDY    86  73  66 SE12G17   29.97F HX  93
CLOQUET        MOSUNNY   73  66  78 E9        29.99F
MCGREGOR       PTSUNNY   81  72  74 SE13      29.96S
$$
MNZ071>073-080-081-089-090-097-098-132200-
   Southwest Minnesota

CITY           SKY/WX    TMP DP  RH WIND       PRES   REMARKS
MONTEVIDEO     SUNNY     88  70  55 SW14G23   29.88F HX  92
GRANITE FALLS  SUNNY     89  74  62 S15G23    29.91S HX  97
CANBY          SUNNY     88  69  53 S12G25    29.88F HX  92
MARSHALL       SUNNY     88  73  61 S17       29.90S HX  95
REDWOOD FALLS  MOSUNNY   88  71  57 S18       29.92S HX  94
OLIVIA         MOSUNNY   86  72  62 S12G18    29.92S HX  92
PIPESTONE        N/A     84  73  70 S17       29.92F HX  91
WINDOM         SUNNY     86  70  58 S9        29.95F HX  90
WORTHINGTON    SUNNY     85  72  65 S14       29.96F HX  91
JACKSON        SUNNY     86  68  54 S14       29.98S
TRACY          SUNNY     87  69  54 S14G22    29.92F HX  91
SLAYTON        MOSUNNY   85  65  52 S15G22    29.95F
$$
MNZ065>067-074>077-082>085-091>093-132200-
   South Central Minnesota

CITY           SKY/WX    TMP DP  RH WIND       PRES   REMARKS
MANKATO        MOSUNNY   85  75  72 S13G18    29.97F HX  93
NEW ULM        SUNNY     86  72  62 S13       29.95S HX  92
ST JAMES         N/A     86  72  62 S13G21    29.95F HX  92
FAIRMONT       MOSUNNY   87  73  62 S16       29.97F HX  94
GLENCOE        MOSUNNY   87  75  66 S10       29.95F HX  96
FARIBAULT      PTSUNNY   86  73  66 S13       29.99F HX  93
OWATONNA       MOSUNNY   84  73  70 S13       30.00F HX  91
ALBERT LEA     MOSUNNY   82  73  74 S12       30.01S
$$
MNZ078>079-086>088-094>096-132200-
   Southeast Minnesota

CITY           SKY/WX    TMP DP  RH WIND       PRES   REMARKS
ROCHESTER      MOSUNNY   84  70  62 S9        30.03F
RED WING       LGT RAIN  84  72  65 SE7       29.98F
STANTON        MOSUNNY   85  71  62 S10       29.98S HX  91
DODGE CENTER   MOSUNNY   84  70  61 S12G21    30.03S
WINONA         MOSUNNY   88  73  62 S3        30.02S HX  96
AUSTIN         MOSUNNY   82  73  74 S9        30.02F
PRESTON        PTSUNNY   82  70  66 SE10      30.04F
$$
ABBREVIATIONS USED IN REMARKS
   TC - TEMPERATURES IN CELSIUS
  WCI - WIND CHILL INDEX
   HX - HEAT INDEX
  VSB - VISIBILITY
$$



USA.gov is the U.S. government's official web portal to all federal, state and local government web resources and services.